Regional Weather Roundup
Issued by NWS

Home | Current Version | Previous Version | Text Only | Print | Product List | Glossary On
Versions: 1 2 3 4 5 6 7 8 9 10 11 12 13 14 15 16 17 18 19 20 21 22 23 24 25 26 27 28
000
ASUS43 KDMX 251307
RWRIA

WEATHER ROUNDUP FOR IOWA
NATIONAL WEATHER SERVICE DES MOINES IA
800 AM CDT SAT OCT 25 2014

NOTE: "FAIR" INDICATES FEW OR NO CLOUDS BELOW 12,000 FEET WITH NO
SIGNIFICANT WEATHER AND/OR OBSTRUCTIONS TO VISIBILITY.

* - THESE STATIONS ARE NOT NWS STATIONS...THUS NOT UNDER NWS
QUALITY CONTROL.  THEY ALSO DO NOT REPORT WEATHER SUCH
AS PRECIPITATION OR FOG.

IAZ001>003-012>014-020>022-031>034-043>046-251400-
   NORTHWEST IOWA

CITY           SKY/WX    TMP DP  RH WIND       PRES   REMARKS
CARROLL *      CLEAR     46  41  81 NW5       30.08R
CHEROKEE *     CLEAR     39  39 100 CALM      30.11R
DENISON *      CLEAR     43  43 100 CALM      30.08R
LE MARS *      CLEAR     39  39 100 CALM      30.12R
ORANGE CITY *  CLEAR     45  39  81 NW3       30.11R
SHELDON *      CLEAR     39  39 100 NW3       30.09R
SIOUX CITY     CLEAR     43  41  93 NW5       30.12R
SPENCER        CLEAR     40  35  83 NW3       30.09R
STORM LAKE *   CLEAR     52  37  58 N9        30.10R
$$

IAZ055>058-069>071-079>083-090>094-251400-
   SOUTHWEST IOWA

CITY           SKY/WX    TMP DP  RH WIND       PRES   REMARKS
AUDUBON *      CLEAR     43  37  81 CALM      30.09R
CLARINDA *     FOG       43  43 100 CALM      30.09R VSB 1/4
COUNCIL BLFS * CLEAR     52  48  87 N8        30.07R
CRESTON *      CLEAR     54  45  71 N13       30.07R
HARLAN  *      CLEAR     46  46 100 MISG      30.12R
LAMONI           N/A     53  48  83 N9        30.05R
RED OAK *      FOG       43  43 100 CALM      30.08R VSB 1/2
SHENANDOAH *   FOG       45  45 100 CALM      30.08R VSB 0
$$

IAZ047>049-059>061-072>074-084-251400-
   CENTRAL IOWA

CITY           SKY/WX    TMP DP  RH WIND       PRES   REMARKS
AMES           CLEAR     47  42  83 N8        30.06R
ANKENY *       CLEAR     46  43  87 CALM      30.06R
CHARITON *     CLEAR     50  48  93 NW7       30.05R
DES MOINES     CLEAR     54  42  64 N6        30.06R
GRINNELL*      CLEAR     50  43  76 NW5       30.04R
KNOXVILLE *    CLEAR     48  46  93 NW7       30.03R
MARSHALLTOWN   CLEAR     44  41  89 NW6       30.04R
PELLA *        CLEAR     50  48  93 N7        30.05R
PERRY *          N/A     45  43  93 NW5       30.07R
$$

IAZ004>006-015-016-023>025-035-036-251400-
   NORTH CENTRAL IOWA

CITY           SKY/WX    TMP DP  RH WIND       PRES   REMARKS
ALGONA *       CLEAR     48  39  71 N7        30.08R
CLARION *      CLEAR     45  41  87 NW6       30.06R
ESTHERVILLE    CLEAR     45  36  70 NW8       30.08R
FORT DODGE *   CLEAR     46  37  71 W3        30.08R
MASON CITY     CLEAR     47  40  76 NW8       30.06R
FOREST CITY *  CLEAR     50  39  66 NW7       30.05R
IOWA FALLS *     N/A     45  41  87 W6        30.06R
$$

IAZ007>011-017>019-026>030-037>042-050>054-066-251400-
   NORTHEAST IOWA

CITY           SKY/WX    TMP DP  RH WIND       PRES   REMARKS
CEDAR RAPIDS   CLEAR     46  46 100 NW7       30.01R
CHARLES CITY * CLEAR     43  41  93 W6        30.04R
CLINTON *      CLOUDY    52  50  93 W6        30.00R VSB<1/4
DECORAH *      CLEAR     48  43  81 CALM      30.00R
DUBUQUE        CLEAR     53  45  74 NW13      29.99R
MONTICELLO *   CLEAR     48  48 100 CALM      30.01R
OELWEIN *      CLEAR     46  45  93 NW8       30.02R
WATERLOO       CLEAR     44  42  93 W3        30.02R
$$

IAZ064-065-067-068-078-251400-
   EAST CENTRAL IOWA

CITY           SKY/WX    TMP DP  RH WIND       PRES   REMARKS
DAVENPORT      FOG       50  49  96 NW7       30.00R VSB<1/4
IOWA CITY      CLEAR     52  49  89 N7        30.02R
MT. PLEASANT *   N/A     48  48 100 CALM      30.01R FOG
MUSCATINE *    CLEAR     50  50 100 CALM      30.00R
QUAD CITIES    FOG       51  50  96 W5        29.99R VSB 1
$$

IAZ062-063-075>077-085>089-095>099-251400-
   SOUTHEAST IOWA

CITY           SKY/WX    TMP DP  RH WIND       PRES   REMARKS
BURLINGTON     FOG       48  48 100 CALM      30.00R VSB<1/4
FAIRFIELD *      N/A     46  46 100 NW6       30.01R
FORT MADISON * FOG       52  52 100 CALM      30.02R VSB 0
KEOKUK *       FOG       50  50 100 NW5       30.01R VSB 0
OSKALOOSA *      N/A     46  46 100 N6        30.03R
CENTERVILLE *  CLEAR     46  46 100 W6        30.05R
OTTUMWA        CLEAR     48  45  89 NW8       30.02R
WASHINGTON *   CLEAR     52  52 100 NW8       30.01R
$$

ABBREVIATIONS USED IN REMARKS
   TC - TEMPERATURES IN CELSIUS
  WCI - WIND CHILL INDEX
   HX - HEAT INDEX
  VSB - VISIBILITY
$$




USA.gov is the U.S. government's official web portal to all federal, state and local government web resources and services.